This demonstration page uses our WeatherBlox Daily Observations layout. Learn more.

Hourly Observations for January 23, 2017

Temp ( °F °C ) Dew Point ( °F °C ) Humidity (%) Winds ( mph kmh ) Pressure ( in mb ) Visibility ( mi km ) Precip ( " mm )
12:54 am 00:54 Clear 22 -5.6 21 -6.1 96 96 N 6 9 29.96 1014 9 14.48406 0 0
1:54 am 01:54 Clear 24 -4.4 23 -5 96 96 N 3 6 29.96 1014 8 12.87472 0 0
2:54 am 02:54 Clear with Mist and Fog 21 -6.1 20 -6.7 96 96 NE 3 6 29.97 1015 4 6.43736 0 0
3:16 am 03:16 Mostly Cloudy 25 -4 23 -5 93 93 Calm 30.03 1017 9 14.48406 0 0
3:24 am 03:24 Mostly Cloudy 25 -4 23 -5 93 93 Calm 30.03 1017 9 14.48406 0 0
3:54 am 03:54 Cloudy 27 -2.8 26 -3.3 96 96 NNE 5 7 29.97 1015 9 14.48406 0 0
4:49 am 04:49 Cloudy 28 -2 27 -3 93 93 WNW 5 7 30 1016 10 16.0934 0 0
4:54 am 04:54 Cloudy 29 -1.7 27 -2.8 92 92 W 3 6 29.95 1014 10 16.0934 0 0
5:54 am 05:54 Cloudy 30 -1.1 27 -2.8 88 88 Calm 29.94 1014 10 16.0934 0 0
6:54 am 06:54 Cloudy 31 -0.6 28 -2.2 89 89 Calm 29.94 1014 10 16.0934 0 0
7:28 am 07:28 Cloudy 30 -1 28 -2 93 93 NNE 3 6 29.97 1015 10 16.0934 0 0
7:54 am 07:54 Cloudy 30 -1.1 27 -2.8 88 88 NE 5 7 29.93 1014 10 16.0934 0 0
8:04 am 08:04 Cloudy 30 -1 27 -3 86 86 N 5 7 29.97 1015 10 16.0934 0 0
8:40 am 08:40 Cloudy 30 -1 28 -2 93 93 N 5 7 29.97 1015 9 14.48406 0 0
8:54 am 08:54 Cloudy 31 -0.6 28 -2.2 89 89 NE 5 7 29.95 1014 9 14.48406 0 0
9:54 am 09:54 Cloudy 32 0 28 -2.2 85 85 Calm 29.96 1015 9 14.48406 0 0
10:54 am 10:54 Mostly Cloudy 33 0.6 29 -1.7 85 85 ENE 6 9 29.93 1014 9 14.48406 0 0
11:09 am 11:09 Partly Cloudy 34 1.1 29 -1.7 82 82 Calm 29.97 1015 9 14.48406 0 0
11:16 am 11:16 Mostly Cloudy 34 1 28 -2 81 81 SSE 3 6 29.97 1015 10 16.0934 0 0
11:30 am 11:30 Partly Cloudy 34 1 28 -2 81 81 SE 3 6 29.94 1014 10 16.0934 0 0
11:54 am 11:54 Mostly Sunny 35 1.7 30 -1.1 82 82 E 5 7 29.91 1013 10 16.0934 0 0
12:54 pm 12:54 Mostly Sunny 38 3.3 30 -1.1 73 73 SE 5 7 29.88 1012 9 14.48406 0 0
1:54 pm 13:54 Sunny 40 4.4 31 -0.6 70 70 ESE 9 15 29.85 1011 10 16.0934 0 0
2:54 pm 14:54 Mostly Cloudy 39 3.9 32 0 76 76 SE 8 13 29.83 1010 10 16.0934 0 0
3:54 pm 15:54 Mostly Sunny 37 3 30 -1 75 75 ESE 10 17 29.8 1009 10 16.0934 0 0
4:54 pm 16:54 Sunny 36 2.2 31 -0.6 82 82 ESE 9 15 29.81 1010 10 16.0934 0 0
5:54 pm 17:54 Mostly Cloudy 35 1.7 31 -0.6 85 85 E 8 13 29.82 1010 10 16.0934 0 0
6:54 pm 18:54 Partly Cloudy 34 1.1 30 -1.1 85 85 ESE 10 17 29.84 1010 8 12.87472 0 0
7:37 pm 19:37 Mostly Cloudy with Mist and Fog 33 0.6 30 -1.1 89 89 ESE 10 17 29.88 1012 6 9.65604 0 0
7:54 pm 19:54 Cloudy 33 0.6 30 -1.1 89 89 ESE 12 19 29.84 1011 7 11.26538 0 0
8:54 pm 20:54 Cloudy 33 0.6 30 -1.1 89 89 E 9 15 29.85 1011 7 11.26538 0 0
9:54 pm 21:54 Mostly Cloudy 32 0 29 -1.7 88 88 E 8 13 29.84 1011 7 11.26538 0 0
10:02 pm 22:02 Mostly Cloudy 32 0 28 -2 87 87 E 7 11 29.85 1011 8 12.87472 0 0
10:54 pm 22:54 Cloudy 32 0 29 -1.7 88 88 E 9 15 29.83 1010 8 12.87472 0 0
11:54 pm 23:54 Cloudy 31 -0.6 29 -1.7 92 92 E 7 11 29.83 1010 7 11.26538 0 0

Powered by AerisWeather